This demonstration page uses our WeatherBlox Daily Observations layout. Learn more.

40.92945, -100.16068

Hourly Observations for March 13, 2018

Temp ( °F °C ) Dew Point ( °F °C ) Humidity (%) Winds ( mph kmh ) Pressure ( in mb ) Visibility ( mi km ) Precip ( " mm )
12:15 am 00:15 Clear 30 -1 17 -8.5 57 57 ENE 5 7 30.45 1031 10 16.0934 0 0
12:35 am 00:35 Clear 28 -2.1 17 -8.1 64 64 N 3 6 30.48 1032 10 16.0934 0 0
12:55 am 00:55 Clear 27 -3 18 -8 69 69 N 3 6 30.5 1033 10 16.0934 0 0
1:15 am 01:15 Clear 25 -3.9 18 -7.6 76 76 NNE 3 6 30.5 1033 10 16.0934 0 0
1:35 am 01:35 Clear 26 -3.5 19 -7.3 75 75 NNE 5 7 30.5 1033 10 16.0934 0 0
1:55 am 01:55 Clear 24 -4.2 18 -7.7 77 77 NE 6 9 30.5 1033 10 16.0934 0 0
2:15 am 02:15 Clear 28 -2.5 19 -7.2 70 70 NNE 3 6 30.5 1033 10 16.0934 0 0
2:35 am 02:35 Clear 25 -4 17 -8.4 72 72 Calm 30.5 1033 10 16.0934 0 0
2:55 am 02:55 Clear 24 -4.7 18 -7.8 79 79 NNW 3 6 30.56 1035 10 16.0934 0 0
3:15 am 03:15 Clear 24 -4.7 18 -7.6 80 80 N 3 6 30.56 1035 10 16.0934 0 0
3:35 am 03:35 Clear 23 -5.1 18 -7.8 82 82 Calm 30.53 1034 10 16.0934 0 0
3:55 am 03:55 Clear 21 -6.1 17 -8.5 83 83 NW 3 6 30.53 1034 10 16.0934 0 0
4:15 am 04:15 Clear 23 -5.1 19 -7.5 83 83 Calm 30.56 1035 10 16.0934 0 0
4:35 am 04:35 Clear 22 -5.5 18 -7.7 85 85 NNW 3 6 30.56 1035 10 16.0934 0 0
4:55 am 04:55 Clear 22 -5.3 18 -7.6 84 84 N 3 6 30.56 1035 10 16.0934 0 0
5:15 am 05:15 Clear 22 -5.6 18 -7.6 86 86 Calm 30.56 1035 10 16.0934 0 0
5:35 am 05:35 Clear 20 -6.7 16 -9.1 83 83 Calm 30.56 1035 10 16.0934 0 0
5:55 am 05:55 Clear 20 -6.6 16 -8.7 85 85 Calm 30.56 1035 10 16.0934 0 0
6:15 am 06:15 Clear 21 -6.1 17 -8.1 86 86 Calm 30.56 1035 10 16.0934 0 0
6:35 am 06:35 Clear 20 -6.8 16 -8.9 85 85 Calm 30.56 1035 10 16.0934 0 0
6:55 am 06:55 Clear 20 -6.5 17 -8.3 87 87 NW 3 6 30.56 1035 10 16.0934 0 0
7:15 am 07:15 Clear 19 -7 16 -9 86 86 NW 5 7 30.56 1035 10 16.0934 0 0
7:35 am 07:35 Clear 19 -7 16 -8.9 86 86 NW 6 9 30.59 1036 10 16.0934 0 0
7:55 am 07:55 Sunny 19 -7.2 16 -9 87 87 NW 6 9 30.59 1036 10 16.0934 0 0
8:15 am 08:15 Sunny 20 -6.4 18 -8 89 89 NNW 5 7 30.59 1036 7 11.26538 0 0
8:35 am 08:35 Sunny 23 -5.2 19 -7 87 87 N 5 7 30.59 1036 10 16.0934 0 0
8:55 am 08:55 Sunny 26 -3.5 22 -5.6 86 86 Calm 30.56 1035 10 16.0934 0 0
9:15 am 09:15 Sunny 28 -2.2 23 -4.8 83 83 Calm 30.56 1035 10 16.0934 0 0
9:35 am 09:35 Sunny 30 -1.2 24 -4.4 79 79 NE 5 7 30.53 1034 10 16.0934 0 0
9:55 am 09:55 Sunny 31 -0.4 23 -4.8 72 72 Calm 30.53 1034 10 16.0934 0 0
10:15 am 10:15 Sunny 32 0.1 20 -6.6 61 61 Calm 30.53 1034 10 16.0934 0 0
10:35 am 10:35 Sunny 34 0.9 19 -7.4 54 54 Calm 30.53 1034 10 16.0934 0 0
10:55 am 10:55 Sunny 35 1.8 16 -8.8 46 46 Calm 30.5 1033 7 11.26538 0 0
11:15 am 11:15 Sunny 37 2.6 14 -9.9 40 40 Calm 30.5 1033 10 16.0934 0 0
11:35 am 11:35 Sunny 38 3.3 14 -9.9 38 38 Calm 30.5 1033 7 11.26538 0 0
11:55 am 11:55 Sunny 39 4.1 14 -9.9 36 36 Calm 30.5 1033 10 16.0934 0 0
12:15 pm 12:15 Sunny 41 4.8 15 -9.7 34 34 Calm 30.45 1031 10 16.0934 0 0
12:35 pm 12:35 Sunny 43 6 16 -8.7 34 34 W 3 6 30.45 1031 10 16.0934 0 0
12:55 pm 12:55 Sunny 44 6.8 18 -7.8 35 35 W 5 7 30.45 1031 10 16.0934 0 0
1:15 pm 13:15 Sunny 46 7.5 18 -7.6 34 34 W 3 6 30.42 1030 10 16.0934 0 0
1:35 pm 13:35 Sunny 46 7.6 18 -8 32 32 Calm 30.42 1030 10 16.0934 0 0
1:55 pm 13:55 Sunny 47 8.5 18 -7.8 31 31 NW 7 11 30.42 1030 10 16.0934 0 0
2:15 pm 14:15 Sunny 48 8.8 18 -7.9 30 30 WSW 3 6 30.39 1029 10 16.0934 0 0
2:35 pm 14:35 Sunny 48 9.1 18 -8 29 29 WNW 3 6 30.39 1029 10 16.0934 0 0
2:55 pm 14:55 Sunny 49 9.3 16 -8.9 27 27 Calm 30.39 1029 10 16.0934 0 0
3:15 pm 15:15 Sunny 49 9.6 16 -8.9 26 26 Calm 30.36 1028 10 16.0934 0 0
3:35 pm 15:35 Sunny 51 10.8 17 -8.2 26 26 Calm 30.33 1027 10 16.0934 0 0
3:55 pm 15:55 Sunny 51 10.6 15 -9.2 24 24 Calm 30.33 1027 10 16.0934 0 0
4:15 pm 16:15 Sunny 51 10.8 16 -8.8 25 25 W 3 6 30.33 1027 10 16.0934 0 0
4:35 pm 16:35 Sunny 51 10.6 15 -9.2 24 24 Calm 30.33 1027 10 16.0934 0 0
4:55 pm 16:55 Sunny 52 11 16 -9.1 24 24 SE 3 6 30.3 1026 10 16.0934 0 0
5:15 pm 17:15 Sunny 52 11 16 -8.9 24 24 Calm 30.3 1026 10 16.0934 0 0
5:35 pm 17:35 Sunny 52 11.3 17 -8.4 24 24 SE 6 9 30.3 1026 10 16.0934 0 0
5:55 pm 17:55 Sunny 53 11.4 17 -8.6 24 24 Calm 30.3 1026 10 16.0934 0 0
6:15 pm 18:15 Sunny 53 11.5 16 -8.7 24 24 SE 3 6 30.3 1026 10 16.0934 0 0
6:35 pm 18:35 Sunny 52 11.1 16 -8.9 24 24 WSW 3 6 30.3 1026 10 16.0934 0 0
6:55 pm 18:55 Sunny 52 11 16 -8.9 24 24 SSW 3 6 30.3 1026 10 16.0934 0 0
7:15 pm 19:15 Sunny 51 10.5 17 -8.4 26 26 S 3 6 30.27 1025 10 16.0934 0 0
7:35 pm 19:35 Sunny 47 8.6 17 -8.2 30 30 ESE 5 7 30.3 1026 10 16.0934 0 0
7:55 pm 19:55 Clear 46 7.8 17 -8.4 31 31 SE 3 6 30.3 1026 10 16.0934 0 0
8:15 pm 20:15 Clear 44 6.6 17 -8.5 33 33 SE 6 9 30.3 1026 10 16.0934 0 0
8:35 pm 20:35 Clear 42 5.6 18 -8 37 37 SSE 8 13 30.33 1027 10 16.0934 0 0
8:55 pm 20:55 Clear 38 3.2 18 -8 44 44 SSE 6 9 30.33 1027 10 16.0934 0 0
9:15 pm 21:15 Clear 37 2.8 18 -7.6 47 47 S 6 9 30.36 1028 10 16.0934 0 0
9:35 pm 21:35 Clear 39 3.8 18 -7.7 43 43 SSE 6 9 30.33 1027 10 16.0934 0 0
9:55 pm 21:55 Clear 36 2.3 17 -8.5 45 45 S 6 9 30.36 1028 10 16.0934 0 0
10:15 pm 22:15 Clear 35 1.8 17 -8.1 48 48 S 5 7 30.36 1028 10 16.0934 0 0
10:35 pm 22:35 Clear 34 1.3 17 -8.2 50 50 S 6 9 30.36 1028 10 16.0934 0 0
10:55 pm 22:55 Clear 35 1.9 17 -8.4 47 47 S 5 7 30.36 1028 10 16.0934 0 0
11:15 pm 23:15 Clear 34 1.3 17 -8.4 49 49 S 6 9 30.33 1027 10 16.0934 0 0
11:35 pm 23:35 Clear 32 0.1 17 -8.1 54 54 S 5 7 30.33 1027 10 16.0934 0 0
11:55 pm 23:55 Clear 32 0 17 -8.2 54 54 S 7 11 30.33 1027 10 16.0934 0 0

Powered by AerisWeather